| time (UTC) | temp C | wind direction | speed KPH | gust KPH | rain 1hr cm | rain 24hr cm | rain mn cm | humidity % | barometer mb |
| 20260509091525 | 21 | 302 | 4.8 | 14.5 | 0.00 | 0.00 | 0.00 | 90 | 1005.9 |
| 20260509091022 | 21 | 14 | 3.2 | 20.9 | 0.00 | 0.00 | 0.00 | 90 | 1006.3 |
| 20260509090519 | 21 | 321 | 8.0 | 20.9 | 0.00 | 0.00 | 0.00 | 90 | 1006.4 |
| 20260509090017 | 21 | 340 | 6.4 | 11.3 | 0.00 | 0.00 | 0.00 | 90 | 1006.4 |
| 20260509085514 | 21 | 336 | 9.7 | 20.9 | 0.00 | 0.00 | 0.00 | 90 | 1006.6 |
| 20260509085010 | 21 | 332 | 11.3 | 16.1 | 0.00 | 0.00 | 0.00 | 89 | 1006.7 |
| 20260509084507 | 21 | 332 | 8.0 | 17.7 | 0.00 | 0.00 | 0.00 | 88 | 1007.0 |
| 20260509084004 | 21 | 333 | 6.4 | 19.3 | 0.00 | 0.00 | 0.00 | 88 | 1007.4 |
| 20260509083501 | 21 | 332 | 9.7 | 19.3 | 0.00 | 0.00 | 0.00 | 88 | 1007.7 |
| 20260509082957 | 21 | 339 | 12.9 | 17.7 | 0.00 | 0.00 | 0.00 | 88 | 1007.9 |
| 20260509082455 | 21 | 310 | 6.4 | 14.5 | 0.00 | 0.00 | 0.00 | 87 | 1008.0 |
| 20260509081952 | 21 | 336 | 17.7 | 19.3 | 0.00 | 0.00 | 0.00 | 87 | 1008.4 |
| 20260509081449 | 21 | 330 | 0.0 | 16.1 | 0.00 | 0.00 | 0.00 | 86 | 1008.5 |
| 20260509080946 | 21 | 342 | 8.0 | 11.3 | 0.00 | 0.00 | 0.00 | 86 | 1008.7 |
| 20260509080445 | 21 | 352 | 9.7 | 11.3 | 0.00 | 0.00 | 0.00 | 86 | 1008.7 |
| 20260509075942 | 21 | 327 | 3.2 | 9.7 | 0.00 | 0.00 | 0.00 | 86 | 1009.3 |
| 20260509075439 | 21 | 325 | 6.4 | 9.7 | 0.00 | 0.00 | 0.00 | 86 | 1009.3 |
| 20260509074937 | 21 | 297 | 3.2 | 8.0 | 0.00 | 0.00 | 0.00 | 86 | 1009.1 |
| 20260509074434 | 21 | 341 | 6.4 | 6.4 | 0.00 | 0.00 | 0.00 | 86 | 1009.4 |
| 20260509073930 | 21 | 0 | 4.8 | 6.4 | 0.00 | 0.00 | 0.00 | 86 | 1009.6 |
| 20260509073427 | 21 | 357 | 1.6 | 4.8 | 0.00 | 0.00 | 0.00 | 87 | 1009.7 |
| 20260509072924 | 21 | 11 | 3.2 | 4.8 | 0.00 | 0.00 | 0.00 | 86 | 1009.9 |
| 20260509072421 | 21 | 40 | 1.6 | 4.8 | 0.00 | 0.00 | 0.00 | 86 | 1009.7 |
| 20260509071917 | 21 | 17 | 1.6 | 4.8 | 0.00 | 0.00 | 0.00 | 87 | 1009.6 |
| 20260509071414 | 21 | 24 | 1.6 | 3.2 | 0.00 | 0.00 | 0.00 | 86 | 1009.9 |
| 20260509070912 | 21 | 19 | 3.2 | 3.2 | 0.00 | 0.00 | 0.00 | 86 | 1009.5 |
| 20260509070408 | 21 | 80 | 3.2 | 3.2 | 0.00 | 0.00 | 0.00 | 86 | 1009.5 |
| 20260509065903 | 21 | 25 | 1.6 | 4.8 | 0.00 | 0.00 | 0.00 | 86 | 1009.0 |
| 20260509065400 | 21 | 337 | 6.4 | 8.0 | 0.00 | 0.00 | 0.00 | 86 | 1008.9 |
| 20260509064856 | 21 | 16 | 3.2 | 9.7 | 0.00 | 0.00 | 0.00 | 86 | 1008.7 |
| 20260509064354 | 21 | 3 | 3.2 | 8.0 | 0.00 | 0.00 | 0.00 | 86 | 1009.0 |
| 20260509063852 | 21 | 353 | 4.8 | 8.0 | 0.00 | 0.00 | 0.00 | 86 | 1009.0 |
| 20260509063347 | 21 | 41 | 1.6 | 6.4 | 0.00 | 0.00 | 0.00 | 86 | 1009.1 |
| 20260509062845 | 21 | 356 | 3.2 | 9.7 | 0.00 | 0.00 | 0.00 | 85 | 1009.0 |
| 20260509062342 | 21 | 356 | 3.2 | 11.3 | 0.00 | 0.00 | 0.00 | 85 | 1009.1 |
| 20260509061839 | 21 | 347 | 6.4 | 9.7 | 0.00 | 0.00 | 0.00 | 85 | 1009.2 |
| 20260509061337 | 21 | 14 | 3.2 | 4.8 | 0.00 | 0.00 | 0.00 | 86 | 1009.6 |
| 20260509060834 | 21 | 22 | 3.2 | 4.8 | 0.00 | 0.00 | 0.00 | 85 | 1009.6 |
| 20260509060331 | 21 | 20 | 3.2 | 3.2 | 0.00 | 0.00 | 0.00 | 85 | 1009.6 |
| 20260509055826 | 22 | 103 | 1.6 | 4.8 | 0.00 | 0.00 | 0.00 | 86 | 1009.9 |
| 20260509055321 | 22 | 119 | 3.2 | 4.8 | 0.00 | 0.00 | 0.00 | 85 | 1009.7 |
| 20260509054819 | 22 | 9 | 4.8 | 9.7 | 0.00 | 0.00 | 0.00 | 85 | 1009.3 |
| 20260509054315 | 22 | 12 | 4.8 | 4.8 | 0.00 | 0.00 | 0.00 | 85 | 1009.7 |
| 20260509053814 | 22 | 10 | 1.6 | 3.2 | 0.00 | 0.00 | 0.00 | 83 | 1010.1 |
| 20260509053310 | 22 | 172 | 3.2 | 6.4 | 0.00 | 0.00 | 0.00 | 82 | 1010.2 |
| 20260509052809 | 22 | 173 | 3.2 | 4.8 | 0.00 | 0.00 | 0.00 | 81 | 1010.2 |
| 20260509052307 | 22 | 180 | 3.2 | 4.8 | 0.00 | 0.00 | 0.00 | 81 | 1010.4 |
| 20260509051804 | 22 | 242 | 3.2 | 4.8 | 0.00 | 0.00 | 0.00 | 80 | 1009.6 |
| 20260509051302 | 22 | 4 | 3.2 | 8.0 | 0.00 | 0.00 | 0.00 | 79 | 1009.3 |
| 20260509050758 | 22 | 354 | 4.8 | 16.1 | 0.00 | 0.00 | 0.00 | 79 | 1009.2 |
| 20260509050254 | 22 | 9 | 6.4 | 14.5 | 0.00 | 0.00 | 0.00 | 79 | 1009.2 |
| 20260509045752 | 22 | 338 | 4.8 | 11.3 | 0.00 | 0.05 | 0.05 | 79 | 1009.3 |
| 20260509045248 | 22 | 349 | 6.4 | 14.5 | 0.00 | 0.05 | 0.05 | 79 | 1008.9 |
| 20260509044746 | 22 | 351 | 6.4 | 16.1 | 0.00 | 0.05 | 0.05 | 79 | 1008.7 |
| 20260509044244 | 22 | 341 | 8.0 | 17.7 | 0.00 | 0.05 | 0.05 | 79 | 1008.5 |
| 20260509043739 | 22 | 358 | 8.0 | 12.9 | 0.00 | 0.05 | 0.05 | 78 | 1008.5 |
| 20260509043236 | 22 | 338 | 9.7 | 16.1 | 0.00 | 0.05 | 0.05 | 77 | 1008.3 |
| 20260509042732 | 22 | 335 | 6.4 | 11.3 | 0.00 | 0.05 | 0.05 | 77 | 1008.9 |
| 20260509042228 | 22 | 301 | 1.6 | 6.4 | 0.00 | 0.05 | 0.05 | 77 | 1009.3 |
| 20260509041725 | 22 | 235 | 0.0 | 1.6 | 0.00 | 0.05 | 0.05 | 77 | 1009.6 |
| 20260509041222 | 22 | 154 | 0.0 | 0.0 | 0.00 | 0.05 | 0.05 | 77 | 1009.7 |
| 20260509040721 | 22 | 123 | 3.2 | 3.2 | 0.00 | 0.05 | 0.05 | 77 | 1009.8 |
| 20260509040217 | 22 | 32 | 0.0 | 1.6 | 0.00 | 0.05 | 0.05 | 76 | 1009.6 |
| 20260509035714 | 22 | 297 | 0.0 | 1.6 | 0.00 | 0.05 | 0.05 | 76 | 1009.7 |
| 20260509035211 | 22 | 322 | 0.0 | 1.6 | 0.00 | 0.05 | 0.05 | 76 | 1009.9 |
| 20260509034708 | 22 | 212 | 0.0 | 3.2 | 0.00 | 0.05 | 0.05 | 76 | 1009.5 |
| 20260509034206 | 22 | 214 | 0.0 | 3.2 | 0.00 | 0.05 | 0.05 | 76 | 1009.6 |
| 20260509033702 | 22 | 319 | 3.2 | 6.4 | 0.00 | 0.05 | 0.05 | 76 | 1009.1 |
| 20260509033159 | 22 | 7 | 6.4 | 9.7 | 0.00 | 0.05 | 0.05 | 75 | 1009.0 |
| 20260509032657 | 22 | 3 | 4.8 | 6.4 | 0.00 | 0.05 | 0.05 | 75 | 1009.0 |
| 20260509032153 | 22 | 325 | 3.2 | 3.2 | 0.00 | 0.05 | 0.05 | 75 | 1009.1 |
| 20260509031651 | 22 | 347 | 0.0 | 6.4 | 0.00 | 0.05 | 0.05 | 75 | 1009.2 |
| 20260509031148 | 22 | 333 | 6.4 | 6.4 | 0.00 | 0.05 | 0.05 | 75 | 1009.0 |
| 20260509030646 | 22 | 339 | 4.8 | 4.8 | 0.00 | 0.05 | 0.05 | 75 | 1008.9 |
| 20260509030143 | 22 | 333 | 6.4 | 6.4 | 0.00 | 0.05 | 0.05 | 75 | 1009.1 |
| 20260509025639 | 22 | 338 | 8.0 | 12.9 | 0.00 | 0.05 | 0.05 | 75 | 1008.9 |
| 20260509025135 | 22 | 302 | 3.2 | 6.4 | 0.00 | 0.05 | 0.05 | 75 | 1008.8 |
| 20260509024630 | 22 | 349 | 4.8 | 12.9 | 0.00 | 0.05 | 0.05 | 75 | 1008.7 |
| 20260509024127 | 22 | 342 | 6.4 | 11.3 | 0.00 | 0.05 | 0.05 | 74 | 1008.5 |
| 20260509023625 | 22 | 322 | 3.2 | 11.3 | 0.00 | 0.05 | 0.05 | 74 | 1008.3 |
| 20260509023121 | 22 | 312 | 6.4 | 9.7 | 0.00 | 0.05 | 0.05 | 74 | 1008.2 |
| 20260509022618 | 22 | 357 | 6.4 | 6.4 | 0.00 | 0.05 | 0.05 | 74 | 1008.2 |
| 20260509022116 | 22 | 347 | 4.8 | 6.4 | 0.00 | 0.05 | 0.05 | 74 | 1008.3 |
| 20260509021612 | 22 | 234 | 0.0 | 8.0 | 0.00 | 0.05 | 0.05 | 74 | 1008.2 |
| 20260509021110 | 22 | 327 | 8.0 | 9.7 | 0.00 | 0.05 | 0.05 | 74 | 1008.2 |
| 20260509020608 | 22 | 8 | 4.8 | 8.0 | 0.00 | 0.05 | 0.05 | 74 | 1008.3 |
| 20260509020104 | 22 | 14 | 8.0 | 8.0 | 0.00 | 0.05 | 0.05 | 74 | 1008.1 |
| 20260509015604 | 22 | 51 | 3.2 | 4.8 | 0.00 | 0.05 | 0.05 | 74 | 1008.2 |
| 20260509015100 | 23 | 13 | 4.8 | 8.0 | 0.00 | 0.05 | 0.05 | 73 | 1008.2 |
| 20260509014556 | 23 | 11 | 3.2 | 8.0 | 0.00 | 0.05 | 0.05 | 73 | 1008.1 |
| 20260509014053 | 23 | 18 | 4.8 | 9.7 | 0.00 | 0.05 | 0.05 | 73 | 1008.0 |
| 20260509013550 | 22 | 351 | 4.8 | 6.4 | 0.00 | 0.05 | 0.05 | 73 | 1007.9 |
| 20260509013045 | 23 | 12 | 4.8 | 8.0 | 0.00 | 0.05 | 0.05 | 73 | 1007.9 |
| 20260509012542 | 23 | 6 | 6.4 | 9.7 | 0.00 | 0.05 | 0.05 | 73 | 1007.8 |
| 20260509012040 | 23 | 22 | 6.4 | 6.4 | 0.00 | 0.05 | 0.05 | 72 | 1007.7 |
| 20260509011537 | 23 | 349 | 6.4 | 8.0 | 0.00 | 0.05 | 0.05 | 72 | 1007.8 |
| 20260509011034 | 23 | 23 | 4.8 | 6.4 | 0.00 | 0.05 | 0.05 | 72 | 1007.7 |
| 20260509010532 | 23 | 347 | 3.2 | 6.4 | 0.00 | 0.05 | 0.05 | 72 | 1007.4 |
| 20260509010029 | 23 | 30 | 4.8 | 4.8 | 0.00 | 0.05 | 0.05 | 72 | 1007.5 |
| 20260509005526 | 23 | 19 | 3.2 | 4.8 | 0.00 | 0.05 | 0.05 | 72 | 1007.5 |
| 20260509005026 | 23 | 344 | 6.4 | 9.7 | 0.00 | 0.05 | 0.05 | 71 | 1007.4 |
| 20260509004524 | 23 | 4 | 3.2 | 8.0 | 0.00 | 0.05 | 0.05 | 71 | 1007.3 |
| 20260509004020 | 23 | 353 | 4.8 | 8.0 | 0.00 | 0.05 | 0.05 | 71 | 1007.4 |
| 20260509003519 | 23 | 4 | 6.4 | 8.0 | 0.00 | 0.05 | 0.05 | 71 | 1007.2 |
| 20260509003015 | 23 | 17 | 8.0 | 11.3 | 0.00 | 0.05 | 0.05 | 70 | 1007.4 |
| 20260509002513 | 23 | 345 | 6.4 | 8.0 | 0.00 | 0.05 | 0.05 | 70 | 1007.3 |
| 20260509002010 | 23 | 356 | 6.4 | 12.9 | 0.00 | 0.05 | 0.05 | 69 | 1007.4 |
| 20260509001507 | 23 | 347 | 12.9 | 14.5 | 0.00 | 0.05 | 0.05 | 68 | 1007.4 |
| 20260509001003 | 23 | 336 | 6.4 | 12.9 | 0.00 | 0.05 | 0.05 | 68 | 1007.5 |
| 20260509000502 | 23 | 348 | 3.2 | 12.9 | 0.00 | 0.05 | 0.05 | 68 | 1007.6 |
| 20260508235957 | 23 | 341 | 6.4 | 14.5 | 0.00 | 0.05 | 0.05 | 68 | 1007.7 |
| 20260508235455 | 23 | 11 | 8.0 | 12.9 | 0.00 | 0.05 | 0.05 | 68 | 1007.6 |
| 20260508234951 | 23 | 349 | 6.4 | 9.7 | 0.00 | 0.05 | 0.05 | 67 | 1007.6 |
| 20260508234448 | 24 | 7 | 4.8 | 6.4 | 0.00 | 0.05 | 0.05 | 66 | 1007.8 |
| 20260508233946 | 23 | 318 | 4.8 | 6.4 | 0.00 | 0.05 | 0.05 | 66 | 1007.8 |
| 20260508233445 | 23 | 117 | 3.2 | 8.0 | 0.00 | 0.05 | 0.05 | 66 | 1007.8 |
| 20260508232942 | 23 | 335 | 4.8 | 12.9 | 0.00 | 0.05 | 0.05 | 65 | 1007.8 |
| 20260508232439 | 24 | 288 | 4.8 | 12.9 | 0.00 | 0.05 | 0.05 | 64 | 1008.0 |
| 20260508231937 | 23 | 344 | 4.8 | 8.0 | 0.00 | 0.05 | 0.05 | 65 | 1007.8 |
| 20260508231434 | 23 | 30 | 8.0 | 11.3 | 0.00 | 0.05 | 0.05 | 66 | 1007.9 |
| 20260508230930 | 23 | 6 | 4.8 | 8.0 | 0.00 | 0.05 | 0.05 | 67 | 1008.2 |
| 20260508230426 | 23 | 357 | 9.7 | 16.1 | 0.00 | 0.05 | 0.05 | 67 | 1008.1 |
| 20260508225924 | 23 | 7 | 8.0 | 14.5 | 0.00 | 0.05 | 0.05 | 67 | 1008.3 |
| 20260508225420 | 23 | 359 | 9.7 | 16.1 | 0.00 | 0.05 | 0.05 | 67 | 1008.1 |
| 20260508224918 | 23 | 0 | 12.9 | 16.1 | 0.00 | 0.05 | 0.05 | 68 | 1008.1 |
| 20260508224416 | 23 | 13 | 8.0 | 12.9 | 0.00 | 0.05 | 0.05 | 70 | 1008.0 |
| 20260508223913 | 23 | 118 | 4.8 | 20.9 | 0.00 | 0.05 | 0.05 | 70 | 1007.9 |
| 20260508223411 | 23 | 23 | 9.7 | 20.9 | 0.00 | 0.05 | 0.05 | 68 | 1008.1 |
| 20260508222908 | 23 | 7 | 12.9 | 17.7 | 0.00 | 0.05 | 0.05 | 69 | 1008.1 |
| 20260508222405 | 23 | 53 | 6.4 | 19.3 | 0.00 | 0.05 | 0.05 | 72 | 1008.0 |
| 20260508221901 | 23 | 36 | 17.7 | 20.9 | 0.00 | 0.05 | 0.05 | 68 | 1007.9 |
| 20260508221357 | 25 | 82 | 6.4 | 9.7 | 0.00 | 0.05 | 0.05 | 67 | 1007.9 |
| 20260508220853 | 25 | 6 | 11.3 | 17.7 | 0.00 | 0.05 | 0.05 | 63 | 1007.7 |
| 20260508220350 | 25 | 56 | 8.0 | 11.3 | 0.00 | 0.05 | 0.05 | 64 | 1007.8 |
| 20260508215846 | 25 | 24 | 0.0 | 12.9 | 0.00 | 0.05 | 0.05 | 64 | 1008.0 |
| 20260508215343 | 25 | 61 | 12.9 | 16.1 | 0.00 | 0.05 | 0.05 | 62 | 1007.9 |
| 20260508214840 | 26 | 352 | 6.4 | 9.7 | 0.00 | 0.05 | 0.05 | 62 | 1007.6 |
| 20260508214337 | 26 | 349 | 6.4 | 11.3 | 0.00 | 0.05 | 0.05 | 60 | 1007.6 |
| 20260508213834 | 27 | 332 | 3.2 | 8.0 | 0.00 | 0.05 | 0.05 | 61 | 1007.6 |
| 20260508213331 | 26 | 212 | 0.0 | 6.4 | 0.00 | 0.05 | 0.05 | 64 | 1007.4 |
| 20260508212827 | 24 | 127 | 0.0 | 4.8 | 0.00 | 0.05 | 0.05 | 73 | 1007.5 |
| 20260508212323 | 22 | 211 | 3.2 | 8.0 | 0.00 | 0.05 | 0.05 | 75 | 1007.7 |
| 20260508211819 | 22 | 342 | 4.8 | 11.3 | 0.00 | 0.05 | 0.05 | 74 | 1008.5 |
| 20260508211314 | 22 | 10 | 3.2 | 12.9 | 0.00 | 0.05 | 0.05 | 74 | 1008.6 |
| 20260508210813 | 22 | 347 | 9.7 | 11.3 | 0.00 | 0.05 | 0.05 | 73 | 1008.8 |
| 20260508210309 | 22 | 341 | 4.8 | 9.7 | 0.00 | 0.05 | 0.05 | 74 | 1008.9 |
| 20260508205806 | 22 | 34 | 9.7 | 9.7 | 0.00 | 0.05 | 0.05 | 75 | 1009.4 |
| 20260508205305 | 22 | 23 | 8.0 | 14.5 | 0.00 | 0.05 | 0.05 | 72 | 1009.6 |
| 20260508204759 | 23 | 62 | 9.7 | 17.7 | 0.00 | 0.05 | 0.05 | 71 | 1009.7 |
| 20260508204255 | 23 | 33 | 6.4 | 14.5 | 0.00 | 0.05 | 0.05 | 70 | 1009.8 |
| 20260508203752 | 23 | 110 | 8.0 | 9.7 | 0.00 | 0.05 | 0.05 | 67 | 1009.6 |
| 20260508203248 | 23 | 36 | 3.2 | 8.0 | 0.00 | 0.05 | 0.05 | 66 | 1009.7 |
| 20260508202743 | 23 | 56 | 4.8 | 9.7 | 0.00 | 0.05 | 0.05 | 66 | 1009.7 |
| 20260508202241 | 23 | 52 | 4.8 | 9.7 | 0.00 | 0.05 | 0.05 | 66 | 1009.7 |
| 20260508201738 | 23 | 45 | 8.0 | 11.3 | 0.00 | 0.05 | 0.05 | 68 | 1009.8 |
| 20260508201235 | 23 | 129 | 3.2 | 12.9 | 0.00 | 0.05 | 0.05 | 65 | 1009.7 |
| 20260508200731 | 23 | 33 | 11.3 | 12.9 | 0.00 | 0.05 | 0.05 | 67 | 1009.5 |
| 20260508200228 | 23 | 66 | 6.4 | 14.5 | 0.00 | 0.05 | 0.05 | 68 | 1009.5 |
| 20260508195724 | 23 | 45 | 4.8 | 11.3 | 0.00 | 0.05 | 0.05 | 67 | 1009.6 |
| 20260508195220 | 24 | 44 | 11.3 | 16.1 | 0.00 | 0.05 | 0.05 | 65 | 1009.7 |
| 20260508194717 | 25 | 58 | 8.0 | 14.5 | 0.00 | 0.05 | 0.05 | 64 | 1009.7 |
| 20260508194214 | 25 | 32 | 9.7 | 16.1 | 0.00 | 0.05 | 0.05 | 65 | 1009.7 |
| 20260508193711 | 24 | 30 | 11.3 | 14.5 | 0.00 | 0.05 | 0.05 | 65 | 1009.7 |
| 20260508193208 | 24 | 6 | 8.0 | 14.5 | 0.00 | 0.05 | 0.05 | 66 | 1009.8 |
| 20260508192704 | 24 | 37 | 8.0 | 14.5 | 0.00 | 0.05 | 0.05 | 67 | 1010.1 |
| 20260508192202 | 24 | 42 | 8.0 | 17.7 | 0.00 | 0.05 | 0.05 | 65 | 1010.0 |
| 20260508191659 | 24 | 8 | 9.7 | 17.7 | 0.00 | 0.05 | 0.05 | 62 | 1009.9 |
| 20260508191155 | 24 | 71 | 11.3 | 17.7 | 0.00 | 0.05 | 0.05 | 63 | 1010.1 |
| 20260508190653 | 25 | 22 | 9.7 | 17.7 | 0.00 | 0.05 | 0.05 | 63 | 1010.4 |
| 20260508190149 | 25 | 33 | 14.5 | 16.1 | 0.00 | 0.05 | 0.05 | 59 | 1010.0 |
| 20260508185646 | 26 | 21 | 3.2 | 16.1 | 0.00 | 0.05 | 0.05 | 56 | 1010.1 |
| 20260508185143 | 25 | 301 | 4.8 | 11.3 | 0.00 | 0.05 | 0.05 | 59 | 1010.3 |
| 20260508184640 | 25 | 108 | 4.8 | 8.0 | 0.00 | 0.05 | 0.05 | 59 | 1010.2 |
| 20260508184137 | 25 | 22 | 19.3 | 22.5 | 0.00 | 0.05 | 0.05 | 59 | 1010.4 |
| 20260508183634 | 25 | 67 | 3.2 | 11.3 | 0.00 | 0.05 | 0.05 | 60 | 1010.3 |
| 20260508183130 | 25 | 127 | 9.7 | 14.5 | 0.00 | 0.05 | 0.05 | 58 | 1010.3 |
| 20260508182626 | 25 | 33 | 6.4 | 12.9 | 0.00 | 0.05 | 0.05 | 60 | 1010.7 |
| 20260508182123 | 26 | 98 | 6.4 | 9.7 | 0.00 | 0.05 | 0.05 | 57 | 1010.3 |
| 20260508181618 | 26 | 60 | 6.4 | 14.5 | 0.00 | 0.05 | 0.05 | 55 | 1010.5 |
| 20260508181116 | 26 | 352 | 3.2 | 6.4 | 0.00 | 0.05 | 0.05 | 55 | 1010.7 |
| 20260508180613 | 24 | 93 | 3.2 | 8.0 | 0.00 | 0.05 | 0.05 | 59 | 1010.7 |
| 20260508180109 | 25 | 66 | 9.7 | 14.5 | 0.00 | 0.05 | 0.05 | 59 | 1010.9 |
| 20260508175606 | 25 | 356 | 8.0 | 11.3 | 0.00 | 0.05 | 0.05 | 56 | 1011.3 |
| 20260508175103 | 25 | 320 | 6.4 | 6.4 | 0.00 | 0.05 | 0.05 | 56 | 1011.0 |
| 20260508174600 | 25 | 344 | 9.7 | 14.5 | 0.00 | 0.05 | 0.05 | 56 | 1011.3 |
| 20260508174057 | 25 | 341 | 9.7 | 9.7 | 0.00 | 0.05 | 0.05 | 57 | 1011.4 |
| 20260508173554 | 25 | 320 | 0.0 | 8.0 | 0.00 | 0.05 | 0.05 | 56 | 1011.3 |
| 20260508173050 | 25 | 354 | 4.8 | 6.4 | 0.00 | 0.05 | 0.05 | 56 | 1011.5 |
| 20260508172548 | 24 | 349 | 6.4 | 9.7 | 0.00 | 0.05 | 0.05 | 58 | 1011.4 |
| 20260508172044 | 23 | 18 | 8.0 | 8.0 | 0.00 | 0.05 | 0.05 | 61 | 1011.6 |
| 20260508171541 | 23 | 5 | 3.2 | 12.9 | 0.00 | 0.05 | 0.05 | 61 | 1011.6 |
| 20260508171037 | 23 | 124 | 3.2 | 14.5 | 0.00 | 0.05 | 0.05 | 62 | 1011.8 |
| 20260508170535 | 24 | 48 | 3.2 | 12.9 | 0.00 | 0.05 | 0.05 | 59 | 1012.0 |
| 20260508170032 | 24 | 2 | 3.2 | 11.3 | 0.00 | 0.05 | 0.05 | 57 | 1012.0 |
| 20260508165529 | 23 | 353 | 8.0 | 9.7 | 0.00 | 0.05 | 0.05 | 59 | 1012.4 |
| 20260508165026 | 23 | 339 | 8.0 | 11.3 | 0.00 | 0.05 | 0.05 | 57 | 1012.4 |
| 20260508164522 | 23 | 311 | 3.2 | 11.3 | 0.00 | 0.05 | 0.05 | 58 | 1012.3 |
| 20260508164019 | 23 | 345 | 4.8 | 8.0 | 0.00 | 0.05 | 0.05 | 58 | 1012.7 |
| 20260508163516 | 23 | 66 | 1.6 | 9.7 | 0.00 | 0.05 | 0.05 | 59 | 1012.9 |
| 20260508163013 | 23 | 328 | 9.7 | 12.9 | 0.00 | 0.05 | 0.05 | 60 | 1012.9 |
| 20260508162510 | 22 | 334 | 8.0 | 12.9 | 0.00 | 0.05 | 0.05 | 60 | 1012.9 |
| 20260508162007 | 22 | 346 | 6.4 | 12.9 | 0.00 | 0.05 | 0.05 | 59 | 1012.9 |
| 20260508161504 | 22 | 25 | 4.8 | 8.0 | 0.00 | 0.05 | 0.05 | 61 | 1012.9 |
| 20260508161001 | 22 | 253 | 3.2 | 9.7 | 0.00 | 0.05 | 0.05 | 62 | 1013.1 |
| 20260508160500 | 21 | 2 | 11.3 | 16.1 | 0.00 | 0.05 | 0.05 | 61 | 1013.1 |
| 20260508155955 | 22 | 31 | 9.7 | 16.1 | 0.00 | 0.05 | 0.05 | 61 | 1013.1 |
| 20260508155453 | 21 | 328 | 3.2 | 14.5 | 0.00 | 0.05 | 0.05 | 62 | 1013.2 |
| 20260508154949 | 21 | 15 | 8.0 | 17.7 | 0.00 | 0.05 | 0.05 | 62 | 1013.4 |
| 20260508154447 | 21 | 22 | 11.3 | 16.1 | 0.00 | 0.05 | 0.05 | 62 | 1013.6 |
| 20260508153943 | 21 | 0 | 9.7 | 14.5 | 0.00 | 0.05 | 0.05 | 61 | 1013.5 |
| 20260508153441 | 21 | 0 | 6.4 | 11.3 | 0.00 | 0.05 | 0.05 | 63 | 1013.4 |
| 20260508152937 | 21 | 30 | 9.7 | 12.9 | 0.00 | 0.05 | 0.05 | 65 | 1013.6 |
| 20260508152434 | 21 | 36 | 8.0 | 12.9 | 0.00 | 0.05 | 0.05 | 64 | 1013.5 |
| 20260508151930 | 21 | 12 | 9.7 | 12.9 | 0.00 | 0.05 | 0.05 | 63 | 1013.5 |
| 20260508151427 | 21 | 347 | 6.4 | 17.7 | 0.00 | 0.05 | 0.05 | 63 | 1013.5 |
| 20260508150923 | 21 | 350 | 12.9 | 16.1 | 0.00 | 0.05 | 0.05 | 62 | 1013.7 |
| 20260508150420 | 21 | 28 | 6.4 | 17.7 | 0.00 | 0.05 | 0.05 | 63 | 1013.6 |
| 20260508145916 | 21 | 350 | 9.7 | 12.9 | 0.00 | 0.05 | 0.05 | 62 | 1013.6 |
| 20260508145412 | 21 | 323 | 9.7 | 12.9 | 0.00 | 0.05 | 0.05 | 61 | 1013.5 |
| 20260508144909 | 22 | 326 | 6.4 | 9.7 | 0.00 | 0.05 | 0.05 | 60 | 1013.1 |
| 20260508144407 | 21 | 59 | 0.0 | 14.5 | 0.00 | 0.05 | 0.05 | 62 | 1013.4 |
| 20260508143904 | 21 | 345 | 6.4 | 9.7 | 0.00 | 0.05 | 0.05 | 64 | 1013.1 |
| 20260508143402 | 20 | 182 | 3.2 | 14.5 | 0.00 | 0.05 | 0.05 | 64 | 1013.2 |
| 20260508142858 | 21 | 340 | 8.0 | 14.5 | 0.00 | 0.05 | 0.05 | 63 | 1013.6 |
| 20260508142355 | 21 | 193 | 3.2 | 8.0 | 0.00 | 0.05 | 0.05 | 64 | 1013.6 |
| 20260508141851 | 21 | 337 | 11.3 | 17.7 | 0.00 | 0.05 | 0.05 | 63 | 1013.8 |
| 20260508141348 | 20 | 354 | 8.0 | 22.5 | 0.00 | 0.05 | 0.05 | 64 | 1013.9 |
| 20260508140846 | 20 | 318 | 6.4 | 8.0 | 0.00 | 0.05 | 0.05 | 64 | 1013.8 |
| 20260508140343 | 20 | 217 | 1.6 | 14.5 | 0.00 | 0.05 | 0.05 | 64 | 1013.7 |
| 20260508135838 | 20 | 29 | 1.6 | 8.0 | 0.00 | 0.05 | 0.05 | 67 | 1013.9 |
| 20260508135335 | 20 | 337 | 6.4 | 12.9 | 0.00 | 0.05 | 0.05 | 66 | 1013.9 |
| 20260508134831 | 20 | 341 | 6.4 | 11.3 | 0.00 | 0.05 | 0.05 | 67 | 1013.7 |
| 20260508134328 | 20 | 328 | 6.4 | 12.9 | 0.00 | 0.05 | 0.05 | 68 | 1013.5 |
| 20260508133824 | 19 | 304 | 11.3 | 14.5 | 0.00 | 0.05 | 0.05 | 68 | 1013.9 |
| 20260508133323 | 19 | 93 | 3.2 | 6.4 | 0.00 | 0.05 | 0.05 | 71 | 1013.5 |
| 20260508132819 | 19 | 161 | 3.2 | 14.5 | 0.00 | 0.05 | 0.05 | 71 | 1013.7 |
| 20260508132317 | 18 | 91 | 1.6 | 8.0 | 0.00 | 0.05 | 0.05 | 72 | 1013.8 |
| 20260508131813 | 18 | 315 | 3.2 | 6.4 | 0.00 | 0.05 | 0.05 | 76 | 1013.9 |
| 20260508131309 | 17 | 199 | 1.6 | 4.8 | 0.00 | 0.05 | 0.05 | 78 | 1013.8 |
| 20260508130806 | 17 | 91 | 1.6 | 3.2 | 0.00 | 0.05 | 0.05 | 78 | 1013.9 |
| 20260508130303 | 17 | 337 | 0.0 | 4.8 | 0.00 | 0.05 | 0.05 | 80 | 1014.0 |
| 20260508125759 | 17 | 181 | 1.6 | 3.2 | 0.00 | 0.05 | 0.05 | 82 | 1014.2 |
| 20260508125255 | 16 | 212 | 0.0 | 3.2 | 0.00 | 0.05 | 0.05 | 82 | 1013.9 |
| 20260508124754 | 16 | 212 | 0.0 | 1.6 | 0.00 | 0.05 | 0.05 | 81 | 1014.3 |
| 20260508124250 | 16 | 240 | 0.0 | 1.6 | 0.00 | 0.05 | 0.05 | 81 | 1014.2 |
| 20260508123749 | 16 | 150 | 0.0 | 3.2 | 0.00 | 0.05 | 0.05 | 81 | 1014.2 |
| 20260508123246 | 16 | 218 | 1.6 | 3.2 | 0.00 | 0.05 | 0.05 | 81 | 1013.7 |
| 20260508122742 | 16 | 63 | 3.2 | 4.8 | 0.00 | 0.05 | 0.05 | 80 | 1013.8 |
| 20260508122239 | 16 | 339 | 1.6 | 4.8 | 0.00 | 0.05 | 0.05 | 81 | 1013.9 |
| 20260508121737 | 16 | 19 | 1.6 | 6.4 | 0.00 | 0.05 | 0.05 | 81 | 1013.9 |
| 20260508121235 | 16 | 22 | 1.6 | 8.0 | 0.00 | 0.05 | 0.05 | 81 | 1014.1 |
| 20260508120732 | 16 | 297 | 4.8 | 6.4 | 0.00 | 0.05 | 0.05 | 82 | 1014.2 |
| 20260508120231 | 16 | 122 | 3.2 | 6.4 | 0.00 | 0.05 | 0.05 | 83 | 1013.7 |
| 20260508115727 | 16 | 333 | 4.8 | 8.0 | 0.00 | 0.05 | 0.05 | 83 | 1014.0 |
| 20260508115225 | 16 | 3 | 4.8 | 9.7 | 0.00 | 0.05 | 0.05 | 84 | 1013.7 |
| 20260508114721 | 16 | 298 | 4.8 | 8.0 | 0.00 | 0.05 | 0.05 | 85 | 1014.0 |
| 20260508114218 | 16 | 110 | 1.6 | 6.4 | 0.00 | 0.05 | 0.05 | 84 | 1014.0 |
| 20260508113714 | 16 | 318 | 3.2 | 6.4 | 0.00 | 0.05 | 0.05 | 83 | 1014.1 |
| 20260508113213 | 16 | 89 | 1.6 | 3.2 | 0.00 | 0.05 | 0.05 | 84 | 1014.3 |
| 20260508112709 | 16 | 59 | 0.0 | 3.2 | 0.00 | 0.05 | 0.05 | 84 | 1014.6 |
| 20260508112206 | 16 | 20 | 3.2 | 3.2 | 0.00 | 0.05 | 0.05 | 85 | 1014.2 |
| 20260508111703 | 16 | 60 | 0.0 | 3.2 | 0.00 | 0.05 | 0.05 | 84 | 1014.7 |
| 20260508111200 | 16 | 269 | 0.0 | 3.2 | 0.00 | 0.05 | 0.05 | 82 | 1014.9 |
| 20260508110657 | 16 | 168 | 0.0 | 4.8 | 0.00 | 0.05 | 0.05 | 82 | 1015.0 |
| 20260508110154 | 16 | 197 | 3.2 | 3.2 | 0.00 | 0.05 | 0.05 | 82 | 1014.6 |
| 20260508105649 | 16 | 89 | 0.0 | 3.2 | 0.00 | 0.05 | 0.05 | 81 | 1014.1 |
| 20260508105146 | 16 | 17 | 6.4 | 6.4 | 0.00 | 0.05 | 0.05 | 81 | 1014.0 |
| 20260508104643 | 16 | 37 | 1.6 | 3.2 | 0.00 | 0.05 | 0.05 | 82 | 1013.6 |
| 20260508104140 | 16 | 1 | 4.8 | 6.4 | 0.00 | 0.05 | 0.05 | 82 | 1013.4 |
| 20260508103637 | 16 | 24 | 3.2 | 4.8 | 0.00 | 0.05 | 0.05 | 82 | 1013.2 |
| 20260508103134 | 16 | 327 | 6.4 | 6.4 | 0.00 | 0.05 | 0.05 | 82 | 1013.0 |
| 20260508102631 | 16 | 336 | 4.8 | 6.4 | 0.00 | 0.05 | 0.05 | 82 | 1012.8 |
| 20260508102130 | 16 | 343 | 8.0 | 11.3 | 0.00 | 0.05 | 0.05 | 83 | 1012.8 |
| 20260508101627 | 16 | 346 | 6.4 | 11.3 | 0.00 | 0.05 | 0.05 | 84 | 1012.9 |
| 20260508101124 | 16 | 335 | 4.8 | 12.9 | 0.00 | 0.05 | 0.05 | 85 | 1012.8 |
| 20260508100621 | 16 | 325 | 3.2 | 8.0 | 0.00 | 0.05 | 0.05 | 86 | 1012.8 |
| 20260508100119 | 16 | 334 | 3.2 | 8.0 | 0.00 | 0.05 | 0.05 | 85 | 1013.4 |
| 20260508095615 | 16 | 338 | 3.2 | 4.8 | 0.00 | 0.05 | 0.05 | 85 | 1013.0 |
| 20260508095113 | 16 | 36 | 0.0 | 8.0 | 0.00 | 0.05 | 0.05 | 85 | 1013.2 |
| 20260508094610 | 16 | 341 | 4.8 | 8.0 | 0.00 | 0.05 | 0.05 | 85 | 1013.1 |
| 20260508094106 | 16 | 0 | 3.2 | 4.8 | 0.00 | 0.05 | 0.05 | 85 | 1013.0 |
| 20260508093604 | 16 | 347 | 3.2 | 6.4 | 0.00 | 0.05 | 0.05 | 85 | 1013.1 |
| 20260508093101 | 16 | 313 | 4.8 | 4.8 | 0.00 | 0.05 | 0.05 | 86 | 1013.2 |
| 20260508092558 | 16 | 344 | 3.2 | 4.8 | 0.00 | 0.05 | 0.05 | 86 | 1013.1 |
| 20260508092057 | 16 | 358 | 3.2 | 6.4 | 0.00 | 0.05 | 0.05 | 86 | 1013.1 |